Location: Cisewo
(53.3833°N, 14.9000°E)
Time: 12:57:10
(UTC+00:00)

COSMOS 2428 - Pass Details

Date: 18 April 2021
Orbit: 844 x 859 km, 70.9° (Epoch: 16 May)

Event Time Altitude Azimuth Distance (km) Brightness Sun altitude
Rises 18:52:41 0° 327° (NNW) 3,443 7.2 -7.0°
Reaches altitude 10° 18:55:09 10° 326° (NW) 2,504 6.4 -7.4°
Maximum altitude 19:00:54 75° 242° (WSW) 893 2.9 -8.1°
Drops below altitude 10° 19:06:37 10° 158° (SSE) 2,491 4.7 -8.8°
Enters shadow 19:07:46 - 157° (SSE) 2,928 5.0 -9.0°
